,,PA_Meas_PMT16A,,PR_Meas_QMR101_102,,RH_Meas_QMH101,,SR_Meas_QMS101,,TA_Meas_QMH101,,GenWind,,GenWind,
time,status,PA,status,PR,status,RH,status,SR,status,TA,status,DirAvg,status,SpdAvg,
2014-06-18, 06:49:04,VALID,918.529,VALID,0,VALID,95.7196,VALID,26.7528,VALID,18.3589,VALID,48,VALID,1.22383,
2014-06-18, 06:50:04,VALID,918.543,VALID,0,VALID,95.712,VALID,28.6868,VALID,18.3603,VALID,39,VALID,0.987891,
2014-06-18, 06:51:04,VALID,918.555,VALID,0,VALID,95.7654,VALID,30.6207,VALID,18.3394,VALID,38,VALID,1.10508,
2014-06-18, 06:52:04,VALID,918.565,VALID,0.2,VALID,95.7806,VALID,32.9844,VALID,18.3394,VALID,56,VALID,0.903516,
2014-06-18, 06:53:04,VALID,918.578,VALID,0,VALID,95.773,VALID,35.563,VALID,18.3589,VALID,65,VALID,0.846094,
2014-06-18, 06:54:04,VALID,918.606,VALID,0,VALID,95.7654,VALID,38.4639,VALID,18.3589,VALID,66,VALID,0.617578,
2014-06-18, 06:55:04,VALID,918.613,VALID,0,VALID,95.7654,VALID,41.7946,VALID,18.3394,VALID,66,VALID,0.84375,
2014-06-18, 06:56:04,VALID,918.578,VALID,0,VALID,95.6891,VALID,45.2327,VALID,18.3394,VALID,66,VALID,0.737891,
2014-06-18, 06:57:04,VALID,918.568,VALID,0,VALID,95.6205,VALID,48.456,VALID,18.3394,VALID,63,VALID,0.65,
2014-06-18, 06:58:04,VALID,918.519,VALID,0,VALID,95.6815,VALID,51.7866,VALID,18.3979,VALID,62,VALID,0.561719,
2014-06-18, 06:59:04,VALID,918.51,VALID,0,VALID,95.7196,VALID,55.2248,VALID,18.4564,VALID,62,VALID,0.639063,
2014-06-18, 07:00:04,VALID,918.513,VALID,0,VALID,95.7425,VALID,58.9852,VALID,18.4759,VALID,62,VALID,0.5625,
2014-06-18, 07:01:04,VALID,918.501,VALID,0,VALID,95.7272,VALID,62.7456,VALID,18.4745,VALID,62,VALID,0.394922,
2014-06-18, 07:02:04,VALID,918.518,VALID,0,VALID,95.7349,VALID,66.2912,VALID,18.5344,VALID,62,VALID,0.208594,
2014-06-18, 07:03:04,VALID,918.525,VALID,0,VALID,95.6739,VALID,69.407,VALID,18.5553,VALID,62,VALID,0.205859,
2014-06-18, 07:04:04,VALID,918.501,VALID,0,VALID,95.6434,VALID,71.8781,VALID,18.572,VALID,62,VALID,0.409766,
2014-06-18, 07:05:04,VALID,918.5,VALID,0,VALID,95.6815,VALID,73.9195,VALID,18.6109,VALID,62,VALID,0.186719,
2014-06-18, 07:06:04,VALID,918.502,VALID,0,VALID,95.773,VALID,75.3162,VALID,18.6694,VALID,62,VALID,0,
2014-06-18, 07:07:04,VALID,918.514,VALID,0,VALID,95.7425,VALID,76.1758,VALID,18.6889,VALID,62,VALID,0,
2014-06-18, 07:08:04,VALID,918.523,VALID,0,VALID,95.6967,VALID,76.8204,VALID,18.7293,VALID,62,VALID,0.175,
2014-06-18, 07:09:04,VALID,918.532,VALID,0,VALID,95.5976,VALID,77.4651,VALID,18.7279,VALID,61,VALID,0,
2014-06-18, 07:10:04,VALID,918.488,VALID,0,VALID,95.6357,VALID,78.0023,VALID,18.8268,VALID,62,VALID,0.453516,
2014-06-18, 07:11:04,VALID,918.524,VALID,0,VALID,95.6129,VALID,78.6469,VALID,18.8449,VALID,62,VALID,0.751562,
2014-06-18, 07:12:04,VALID,918.515,VALID,0,VALID,95.6434,VALID,78.9692,VALID,18.9034,VALID,61,VALID,0.299219,
2014-06-18, 07:13:04,VALID,918.492,VALID,0,VALID,95.6434,VALID,78.7544,VALID,18.9619,VALID,62,VALID,0.103516,
2014-06-18, 07:14:04,VALID,918.481,VALID,0,VALID,95.6205,VALID,78.0023,VALID,19.0008,VALID,62,VALID,0.661328,
2014-06-18, 07:15:04,VALID,918.482,VALID,0,VALID,95.5443,VALID,76.8204,VALID,19.0398,VALID,61,VALID,0.2375,
2014-06-18, 07:16:04,VALID,918.487,VALID,0,VALID,95.3689,VALID,75.4237,VALID,19.0203,VALID,61,VALID,0.071875,
2014-06-18, 07:17:04,VALID,918.482,VALID,0,VALID,94.8429,VALID,73.4897,VALID,18.9799,VALID,61,VALID,0.585938,
2014-06-18, 07:18:04,VALID,918.496,VALID,0,VALID,94.2559,VALID,71.3409,VALID,19.0008,VALID,62,VALID,0.170703,
2014-06-18, 07:19:04,VALID,918.485,VALID,0,VALID,93.707,VALID,69.7293,VALID,19.0203,VALID,61,VALID,0.277734,
2014-06-18, 07:20:04,VALID,918.539,VALID,0,VALID,93.0667,VALID,68.6549,VALID,19.0413,VALID,61,VALID,0,
2014-06-18, 07:21:04,VALID,918.512,VALID,0,VALID,92.7922,VALID,68.0102,VALID,19.0803,VALID,61,VALID,0.160547,
2014-06-18, 07:22:04,VALID,918.548,VALID,0,VALID,92.7389,VALID,67.5805,VALID,19.0998,VALID,61,VALID,0.307813,
2014-06-18, 07:23:04,VALID,918.548,VALID,0,VALID,92.2967,VALID,67.3656,VALID,19.1207,VALID,61,VALID,0.3375,
2014-06-18, 07:24:04,VALID,918.554,VALID,0,VALID,92.5102,VALID,67.473,VALID,19.1388,VALID,57,VALID,0.501953,
2014-06-18, 07:25:04,VALID,918.549,VALID,0,VALID,92.6169,VALID,68.3326,VALID,19.1388,VALID,24,VALID,0.691016,
2014-06-18, 07:26:04,VALID,918.528,VALID,0,VALID,92.9599,VALID,69.1921,VALID,19.0998,VALID,24,VALID,0.255078,
2014-06-18, 07:27:04,VALID,918.499,VALID,0,VALID,93.3487,VALID,69.9442,VALID,19.0983,VALID,24,VALID,0,
2014-06-18, 07:28:04,VALID,918.485,VALID,0,VALID,93.303,VALID,70.4814,VALID,19.0803,VALID,24,VALID,0.00429688,
2014-06-18, 07:29:04,VALID,918.48,VALID,0,VALID,93.059,VALID,70.9112,VALID,19.0413,VALID,24,VALID,0.352344,
2014-06-18, 07:30:04,VALID,918.453,VALID,0,VALID,93.1581,VALID,71.5558,VALID,19.0218,VALID,24,VALID,0.277344,
2014-06-18, 07:31:04,VALID,918.44,VALID,0,VALID,93.1429,VALID,72.4153,VALID,18.9828,VALID,24,VALID,0,
2014-06-18, 07:32:04,VALID,918.453,VALID,0,VALID,93.4783,VALID,73.4897,VALID,19.0398,VALID,24,VALID,0.340234,
2014-06-18, 07:33:04,VALID,918.423,VALID,0,VALID,93.5317,VALID,74.9939,VALID,19.0413,VALID,24,VALID,0.424609,
2014-06-18, 07:34:04,VALID,918.466,VALID,0,VALID,93.9052,VALID,77.0353,VALID,19.0593,VALID,24,VALID,0.360156,
2014-06-18, 07:35:04,VALID,918.467,VALID,0,VALID,94.0882,VALID,79.399,VALID,19.1193,VALID,24,VALID,0.285156,
2014-06-18, 07:36:04,VALID,918.499,VALID,0,VALID,93.8976,VALID,81.7627,VALID,19.0788,VALID,24,VALID,0.325827,
2014-06-18, 07:37:04,VALID,918.469,VALID,0,VALID,94.1492,VALID,84.3413,VALID,19.0803,VALID,24,VALID,0.151562,
2014-06-18, 07:38:04,VALID,918.458,VALID,0,VALID,94.2559,VALID,85.0934,VALID,19.0608,VALID,24,VALID,0,
2014-06-18, 07:39:04,VALID,918.442,VALID,0,VALID,94.6828,VALID,85.5232,VALID,19.0788,VALID,24,VALID,0,
2014-06-18, 07:40:04,VALID,918.471,VALID,0,VALID,94.8429,VALID,90.0357,VALID,19.0788,VALID,24,VALID,0.512109,
2014-06-18, 07:41:04,VALID,918.426,VALID,0,VALID,94.9268,VALID,96.4822,VALID,19.0803,VALID,24,VALID,0.429297,
2014-06-18, 07:42:04,VALID,918.444,VALID,0,VALID,94.7591,VALID,95.1929,VALID,19.0008,VALID,24,VALID,0.356641,
2014-06-18, 07:43:04,VALID,918.412,VALID,0,VALID,94.9039,VALID,97.0194,VALID,18.9814,VALID,24,VALID,0.0136719,
2014-06-18, 07:44:04,VALID,918.431,VALID,0,VALID,94.9573,VALID,103.681,VALID,18.9619,VALID,24,VALID,0.723828,
2014-06-18, 07:45:04,VALID,918.464,VALID,0,VALID,95.2088,VALID,111.094,VALID,18.9814,VALID,24,VALID,0.630078,
2014-06-18, 07:46:04,VALID,918.512,VALID,0,VALID,95.2393,VALID,117.648,VALID,18.9619,VALID,24,VALID,0.627734,
2014-06-18, 07:47:04,VALID,918.544,VALID,0,VALID,95.2393,VALID,125.491,VALID,18.9633,VALID,24,VALID,0.421875,
2014-06-18, 07:48:04,VALID,918.57,VALID,0,VALID,95.2851,VALID,133.764,VALID,18.9619,VALID,24,VALID,0.369922,
2014-06-18, 07:49:04,VALID,918.607,VALID,0,VALID,95.4147,VALID,139.351,VALID,19.0218,VALID,24,VALID,0.257813,
2014-06-18, 07:50:04,VALID,918.614,VALID,0,VALID,95.4985,VALID,139.888,VALID,19.0608,VALID,24,VALID,0.471484,
2014-06-18, 07:51:04,VALID,918.627,VALID,0,VALID,95.5367,VALID,141.393,VALID,19.0788,VALID,24,VALID,0.123828,
2014-06-18, 07:52:04,VALID,918.654,VALID,0,VALID,95.6357,VALID,142.897,VALID,19.1178,VALID,24,VALID,0.29375,
2014-06-18, 07:53:04,VALID,918.687,VALID,0,VALID,95.5748,VALID,143.219,VALID,19.1193,VALID,24,VALID,0.362109,
2014-06-18, 07:54:04,VALID,918.72,VALID,0,VALID,95.5214,VALID,144.401,VALID,19.1388,VALID,23,VALID,0.361328,
2014-06-18, 07:55:04,VALID,918.729,VALID,0,VALID,95.5748,VALID,145.905,VALID,19.1359,VALID,24,VALID,0.6125,
2014-06-18, 07:56:04,VALID,918.754,VALID,0,VALID,95.6205,VALID,148.161,VALID,19.2363,VALID,24,VALID,0.367969,
2014-06-18, 07:57:04,VALID,918.802,VALID,0,VALID,95.6434,VALID,153.319,VALID,19.2753,VALID,24,VALID,0.293359,
2014-06-18, 07:58:04,VALID,918.826,VALID,0,VALID,95.6053,VALID,148.913,VALID,19.2933,VALID,24,VALID,0.567969,
2014-06-18, 07:59:04,VALID,918.844,VALID,0,VALID,95.529,VALID,139.996,VALID,19.2933,VALID,24,VALID,0.0605469,
2014-06-18, 08:00:04,VALID,918.874,VALID,0,VALID,95.529,VALID,129.037,VALID,19.2933,VALID,24,VALID,0,
2014-06-18, 08:01:04,VALID,918.851,VALID,0,VALID,95.529,VALID,123.557,VALID,19.3728,VALID,348,VALID,0.88125,
2014-06-18, 08:02:04,VALID,918.894,VALID,0,VALID,95.4604,VALID,130.648,VALID,19.3323,VALID,351,VALID,0.626953,
2014-06-18, 08:03:04,VALID,918.868,VALID,0,VALID,95.5062,VALID,134.194,VALID,19.3518,VALID,25,VALID,1.07969,
2014-06-18, 08:04:04,VALID,918.899,VALID,0,VALID,95.5138,VALID,142.36,VALID,19.3713,VALID,22,VALID,0.903516,
2014-06-18, 08:05:04,VALID,918.927,VALID,0,VALID,95.5671,VALID,148.269,VALID,19.3908,VALID,44,VALID,0.909766,
2014-06-18, 08:06:04,VALID,918.907,VALID,0,VALID,95.5367,VALID,154.715,VALID,19.4313,VALID,38,VALID,0.233203,
2014-06-18, 08:07:04,VALID,918.926,VALID,0,VALID,95.3232,VALID,164.385,VALID,19.3518,VALID,39,VALID,0,
2014-06-18, 08:08:04,VALID,918.955,VALID,0,VALID,95.1021,VALID,175.237,VALID,19.3713,VALID,39,VALID,0,
2014-06-18, 08:09:04,VALID,918.96,VALID,0,VALID,95.0564,VALID,180.286,VALID,19.4283,VALID,39,VALID,0.330859,
2014-06-18, 08:10:04,VALID,918.952,VALID,0,VALID,94.2407,VALID,191.03,VALID,19.4493,VALID,39,VALID,0.329688,
2014-06-18, 08:11:04,VALID,918.942,VALID,0,VALID,93.242,VALID,194.254,VALID,19.4688,VALID,18,VALID,0.904297,
2014-06-18, 08:12:04,VALID,918.897,VALID,0,VALID,92.8913,VALID,198.766,VALID,19.5078,VALID,16,VALID,0.699609,
2014-06-18, 08:13:04,VALID,918.884,VALID,0,VALID,92.3043,VALID,197.692,VALID,19.5063,VALID,53,VALID,1.16719,
2014-06-18, 08:14:04,VALID,918.895,VALID,0,VALID,91.8317,VALID,188.344,VALID,19.5078,VALID,39,VALID,0.766406,
2014-06-18, 08:15:04,VALID,918.932,VALID,0,VALID,91.9308,VALID,187.592,VALID,19.5663,VALID,37,VALID,0.555078,
2014-06-18, 08:16:04,VALID,918.973,VALID,0,VALID,91.7935,VALID,187.055,VALID,19.5873,VALID,37,VALID,0.461328,
2014-06-18, 08:17:04,VALID,918.965,VALID,0,VALID,92.2205,VALID,166.534,VALID,19.6248,VALID,37,VALID,0.498828,
2014-06-18, 08:18:04,VALID,918.96,VALID,0,VALID,92.2662,VALID,159.335,VALID,19.7028,VALID,37,VALID,0,
2014-06-18, 08:19:04,VALID,919.001,VALID,0,VALID,92.0832,VALID,159.12,VALID,19.7418,VALID,37,VALID,0.265234,
2014-06-18, 08:20:04,VALID,918.992,VALID,0,VALID,92.007,VALID,158.905,VALID,19.8003,VALID,37,VALID,0.321484,
2014-06-18, 08:21:04,VALID,919.011,VALID,0,VALID,91.7249,VALID,155.252,VALID,19.8198,VALID,86,VALID,0.398828,
2014-06-18, 08:22:04,VALID,919.013,VALID,0,VALID,91.5344,VALID,142.897,VALID,19.8588,VALID,86,VALID,0.458984,
2014-06-18, 08:23:04,VALID,919.061,VALID,0,VALID,90.8787,VALID,134.624,VALID,19.8603,VALID,86,VALID,0.543359,
2014-06-18, 08:24:04,VALID,919.055,VALID,0,VALID,90.3527,VALID,127.103,VALID,19.8813,VALID,86,VALID,0.141016,
2014-06-18, 08:25:04,VALID,919.064,VALID,0,VALID,90.2917,VALID,117.756,VALID,19.8993,VALID,86,VALID,0.275781,
2014-06-18, 08:26:04,VALID,919.065,VALID,0,VALID,89.9334,VALID,126.458,VALID,19.9188,VALID,86,VALID,0.203906,
2014-06-18, 08:27:04,VALID,919.083,VALID,0,VALID,89.8648,VALID,132.69,VALID,19.9173,VALID,86,VALID,0.139844,
2014-06-18, 08:28:04,VALID,919.091,VALID,0,VALID,90.0478,VALID,129.467,VALID,19.9563,VALID,86,VALID,0,
2014-06-18, 08:29:04,VALID,919.108,VALID,0,VALID,90.3146,VALID,131.401,VALID,20.0358,VALID,80,VALID,0.442187,
2014-06-18, 08:30:04,VALID,919.12,VALID,0,VALID,90.6348,VALID,129.681,VALID,20.0749,VALID,78,VALID,0.577344,
2014-06-18, 08:31:04,VALID,919.143,VALID,0,VALID,90.6043,VALID,137.632,VALID,20.0538,VALID,77,VALID,0.355078,
2014-06-18, 08:32:04,VALID,919.16,VALID,0,VALID,91.3514,VALID,141.5,VALID,20.0928,VALID,16,VALID,0.434375,
2014-06-18, 08:33:04,VALID,919.184,VALID,0,VALID,90.894,VALID,133.872,VALID,20.0749,VALID,16,VALID,0.377344,
2014-06-18, 08:34:04,VALID,919.229,VALID,0,VALID,91.3743,VALID,126.028,VALID,20.0733,VALID,16,VALID,0.259375,
2014-06-18, 08:35:04,VALID,919.223,VALID,0,VALID,91.2752,VALID,124.739,VALID,20.0733,VALID,16,VALID,0.458203,
2014-06-18, 08:36:04,VALID,919.206,VALID,0,VALID,91.2142,VALID,122.375,VALID,20.1318,VALID,16,VALID,0.175391,
2014-06-18, 08:37:04,VALID,919.209,VALID,0,VALID,91.3209,VALID,116.466,VALID,20.1708,VALID,19,VALID,0.542578,
2014-06-18, 08:38:04,VALID,919.184,VALID,0,VALID,89.4684,VALID,108.623,VALID,20.0928,VALID,54,VALID,1.03984,
2014-06-18, 08:39:04,VALID,919.238,VALID,0,VALID,88.7442,VALID,120.871,VALID,19.9938,VALID,58,VALID,0.628516,
2014-06-18, 08:40:04,VALID,919.241,VALID,0,VALID,89.0186,VALID,134.624,VALID,19.9548,VALID,58,VALID,0.003125,
2014-06-18, 08:41:04,VALID,919.205,VALID,0,VALID,89.5218,VALID,128.285,VALID,19.9368,VALID,57,VALID,0.553516,
2014-06-18, 08:42:04,VALID,919.215,VALID,0,VALID,90.5128,VALID,129.467,VALID,19.9548,VALID,55,VALID,0.956641,
2014-06-18, 08:43:04,VALID,919.269,VALID,0,VALID,91.4124,VALID,126.566,VALID,19.9938,VALID,55,VALID,0.616406,
2014-06-18, 08:44:04,VALID,919.266,VALID,0,VALID,90.9473,VALID,98.7384,VALID,19.9953,VALID,54,VALID,0.370313,
2014-06-18, 08:45:04,VALID,919.284,VALID,0,VALID,90.4671,VALID,106.582,VALID,19.9758,VALID,302,VALID,0.505469,
2014-06-18, 08:46:04,VALID,919.286,VALID,0,VALID,90.8254,VALID,101.639,VALID,19.9953,VALID,30,VALID,0.560547,
2014-06-18, 08:47:04,VALID,919.292,VALID,0,VALID,91.0312,VALID,100.995,VALID,19.9953,VALID,29,VALID,0.340234,
2014-06-18, 08:48:04,VALID,919.281,VALID,0,VALID,91.6563,VALID,76.2832,VALID,20.0133,VALID,29,VALID,0.0832031,
2014-06-18, 08:49:04,VALID,919.335,VALID,0,VALID,91.9384,VALID,69.8367,VALID,20.0328,VALID,29,VALID,0.478516,
2014-06-18, 08:50:04,VALID,919.339,VALID,0,VALID,92.2814,VALID,74.1344,VALID,20.0328,VALID,29,VALID,0.300781,
2014-06-18, 08:51:04,VALID,919.372,VALID,0,VALID,92.4949,VALID,60.167,VALID,20.0553,VALID,29,VALID,0.6,
2014-06-18, 08:52:04,VALID,919.353,VALID,0,VALID,92.5711,VALID,86.5976,VALID,19.9758,VALID,38,VALID,0.832812,
2014-06-18, 08:53:04,VALID,919.368,VALID,0,VALID,93.0895,VALID,123.772,VALID,19.9953,VALID,43,VALID,0.583594,
2014-06-18, 08:54:05,VALID,919.359,VALID,0,VALID,93.5393,VALID,127.103,VALID,20.0358,VALID,24,VALID,0.809375,
2014-06-18, 08:55:05,VALID,919.387,VALID,0,VALID,93.6232,VALID,118.722,VALID,20.0163,VALID,16,VALID,1.56406,
2014-06-18, 08:56:05,VALID,919.403,VALID,0,VALID,93.7451,VALID,97.0194,VALID,19.9743,VALID,10,VALID,1.14219,
2014-06-18, 08:57:05,VALID,919.416,VALID,0,VALID,93.181,VALID,73.06,VALID,19.9368,VALID,30,VALID,1.41445,
2014-06-18, 08:58:05,VALID,919.415,VALID,0,VALID,93.4326,VALID,49.9601,VALID,19.9173,VALID,12,VALID,1.03633,
2014-06-18, 08:59:05,VALID,919.394,VALID,0,VALID,93.5088,VALID,50.2825,VALID,19.8978,VALID,21,VALID,0.739453,
2014-06-18, 09:00:05,VALID,919.422,VALID,0,VALID,93.242,VALID,67.6879,VALID,19.8378,VALID,357,VALID,0.775781,
2014-06-18, 09:01:05,VALID,919.453,VALID,0,VALID,93.6155,VALID,83.3743,VALID,19.8198,VALID,22,VALID,0.967969,
2014-06-18, 09:02:05,VALID,919.411,VALID,0,VALID,93.1734,VALID,97.4491,VALID,19.8003,VALID,330,VALID,3.0957,
2014-06-18, 09:03:05,VALID,919.405,VALID,0,VALID,93.4478,VALID,115.929,VALID,19.7628,VALID,32,VALID,1.63125,
2014-06-18, 09:04:05,VALID,919.364,VALID,0,VALID,93.3564,VALID,114.64,VALID,19.7808,VALID,313,VALID,1.25469,
2014-06-18, 09:05:05,VALID,919.417,VALID,0,VALID,93.6689,VALID,82.7297,VALID,19.7613,VALID,28,VALID,0.949219,
2014-06-18, 09:06:05,VALID,919.39,VALID,0,VALID,93.8671,VALID,64.4647,VALID,19.8198,VALID,27,VALID,0.689844,
2014-06-18, 09:07:05,VALID,919.386,VALID,0,VALID,93.9815,VALID,69.407,VALID,19.8393,VALID,248,VALID,0.666016,
2014-06-18, 09:08:05,VALID,919.396,VALID,0,VALID,93.9586,VALID,72.093,VALID,19.8393,VALID,202,VALID,0.310547,
2014-06-18, 09:09:05,VALID,919.381,VALID,0,VALID,94.0196,VALID,74.1344,VALID,19.8603,VALID,201,VALID,0.414063,
2014-06-18, 09:10:05,VALID,919.352,VALID,0,VALID,94.1339,VALID,66.9358,VALID,19.8588,VALID,51,VALID,1.17539,
2014-06-18, 09:11:05,VALID,919.369,VALID,0,VALID,94.3855,VALID,59.0926,VALID,19.8783,VALID,49,VALID,0.752734,
2014-06-18, 09:12:05,VALID,919.424,VALID,0,VALID,94.5227,VALID,52.2164,VALID,19.8993,VALID,36,VALID,0.344141,
2014-06-18, 09:13:05,VALID,919.423,VALID,0,VALID,94.9573,VALID,41.15,VALID,19.9173,VALID,35,VALID,0.661328,
2014-06-18, 09:14:05,VALID,919.388,VALID,0,VALID,94.942,VALID,37.497,VALID,19.9173,VALID,90,VALID,1.24609,
2014-06-18, 09:15:05,VALID,919.449,VALID,0,VALID,95.0106,VALID,35.4556,VALID,19.8978,VALID,336,VALID,1.07578,
2014-06-18, 09:16:05,VALID,919.43,VALID,0,VALID,94.942,VALID,37.0672,VALID,19.8603,VALID,18,VALID,2.12617,
2014-06-18, 09:17:05,VALID,919.41,VALID,0,VALID,95.0411,VALID,69.2995,VALID,19.8003,VALID,29,VALID,1.35781,
2014-06-18, 09:18:05,VALID,919.337,VALID,0,VALID,95.1555,VALID,108.408,VALID,19.7808,VALID,44,VALID,1.65195,
2014-06-18, 09:19:05,VALID,919.347,VALID,0,VALID,95.2775,VALID,117.326,VALID,19.7808,VALID,34,VALID,0.868359,
2014-06-18, 09:20:05,VALID,919.312,VALID,0,VALID,95.3918,VALID,125.384,VALID,19.8003,VALID,37,VALID,1.59531,
2014-06-18, 09:21:05,VALID,919.346,VALID,0,VALID,95.4833,VALID,146.979,VALID,19.8183,VALID,16,VALID,0.955078,
2014-06-18, 09:22:05,VALID,919.362,VALID,0,VALID,95.5062,VALID,165.137,VALID,19.8393,VALID,256,VALID,0.788672,
2014-06-18, 09:23:05,VALID,919.344,VALID,0,VALID,95.5367,VALID,157.831,VALID,19.8588,VALID,330,VALID,1.27656,
2014-06-18, 09:24:05,VALID,919.353,VALID,0,VALID,95.3232,VALID,161.054,VALID,19.7988,VALID,345,VALID,4.02148,
2014-06-18, 09:25:05,VALID,919.347,VALID,0,VALID,95.2317,VALID,159.12,VALID,19.7598,VALID,10,VALID,3.85859,
2014-06-18, 09:26:05,VALID,919.426,VALID,0,VALID,95.2622,VALID,152.566,VALID,19.7598,VALID,281,VALID,2.54336,
2014-06-18, 09:27:05,VALID,919.388,VALID,0,VALID,95.1174,VALID,176.203,VALID,19.7418,VALID,278,VALID,0.910547,
2014-06-18, 09:28:05,VALID,919.391,VALID,0,VALID,95.247,VALID,162.558,VALID,19.7793,VALID,12,VALID,1.92891,
2014-06-18, 09:29:05,VALID,919.424,VALID,0,VALID,95.3461,VALID,169.542,VALID,19.8183,VALID,46,VALID,2.33594,
2014-06-18, 09:30:05,VALID,919.399,VALID,0,VALID,95.2622,VALID,200.378,VALID,19.8393,VALID,29,VALID,2.08281,
2014-06-18, 09:31:05,VALID,919.415,VALID,0,VALID,95.4299,VALID,262.049,VALID,19.8963,VALID,19,VALID,1.75937,
2014-06-18, 09:32:05,VALID,919.349,VALID,0,VALID,95.4757,VALID,296.645,VALID,19.9953,VALID,6,VALID,1.50977,
2014-06-18, 09:33:05,VALID,919.385,VALID,0,VALID,95.3308,VALID,213.163,VALID,19.9758,VALID,326,VALID,0.450781,
2014-06-18, 09:34:05,VALID,919.344,VALID,0,VALID,95.3613,VALID,197.369,VALID,20.0733,VALID,19,VALID,0.963281,
2014-06-18, 09:35:05,VALID,919.321,VALID,0,VALID,95.3613,VALID,176.526,VALID,20.0913,VALID,47,VALID,1.04297,
2014-06-18, 09:36:05,VALID,919.349,VALID,0,VALID,95.5138,VALID,263.446,VALID,20.2114,VALID,13,VALID,2.0332,
2014-06-18, 09:37:05,VALID,919.295,VALID,0,VALID,95.468,VALID,310.827,VALID,20.2083,VALID,7,VALID,2.2707,
2014-06-18, 09:38:05,VALID,919.243,VALID,0,VALID,95.0564,VALID,296.43,VALID,20.1123,VALID,13,VALID,1.69961,
2014-06-18, 09:39:05,VALID,919.207,VALID,0,VALID,95.1936,VALID,245.503,VALID,20.2504,VALID,353,VALID,1.83398,
2014-06-18, 09:40:05,VALID,919.258,VALID,0,VALID,95.1479,VALID,184.154,VALID,20.2489,VALID,1,VALID,2.04531,
2014-06-18, 09:41:05,VALID,919.233,VALID,0,VALID,94.9496,VALID,240.238,VALID,20.2293,VALID,17,VALID,1.75,
2014-06-18, 09:42:05,VALID,919.169,VALID,0,VALID,94.5304,VALID,650.019,VALID,20.2293,VALID,14,VALID,2.81406,
2014-06-18, 09:43:05,VALID,919.126,VALID,0,VALID,94.2102,VALID,382.705,VALID,20.2489,VALID,30,VALID,2.49766,
2014-06-18, 09:44:05,VALID,919.122,VALID,0,VALID,94.2788,VALID,410.21,VALID,20.3674,VALID,29,VALID,2.27852,
2014-06-18, 09:45:05,VALID,919.114,VALID,0,VALID,93.8138,VALID,368.953,VALID,20.4244,VALID,353,VALID,0.767187,
2014-06-18, 09:46:05,VALID,919.085,VALID,0,VALID,94.6905,VALID,405.161,VALID,20.5999,VALID,36,VALID,1.05781,
2014-06-18, 09:47:05,VALID,919.045,VALID,0,VALID,94.7438,VALID,371.854,VALID,20.756,VALID,17,VALID,1.52773,
2014-06-18, 09:48:05,VALID,919.039,VALID,0,VALID,92.9523,VALID,317.703,VALID,20.6975,VALID,41,VALID,1.48984,
2014-06-18, 09:49:05,VALID,919.03,VALID,0,VALID,92.3424,VALID,540.751,VALID,20.7365,VALID,332,VALID,1.70781,
2014-06-18, 09:50:05,VALID,919.014,VALID,0,VALID,90.955,VALID,697.938,VALID,20.7576,VALID,14,VALID,1.31484,
2014-06-18, 09:51:05,VALID,919.008,VALID,0,VALID,91.8622,VALID,544.512,VALID,20.9495,VALID,27,VALID,1.18359,
2014-06-18, 09:52:05,VALID,919.031,VALID,0,VALID,91.3514,VALID,505.081,VALID,21.1266,VALID,38,VALID,1.31289,
2014-06-18, 09:53:05,VALID,919.018,VALID,0,VALID,90.9016,VALID,416.764,VALID,21.2827,VALID,19,VALID,2.73438,
2014-06-18, 09:54:05,VALID,919.009,VALID,0,VALID,88.7518,VALID,336.506,VALID,21.2226,VALID,14,VALID,2.34961,
2014-06-18, 09:55:05,VALID,918.995,VALID,0,VALID,88.7747,VALID,334.787,VALID,21.2421,VALID,4,VALID,1.21289,
2014-06-18, 09:56:05,VALID,918.987,VALID,0,VALID,88.828,VALID,377.871,VALID,21.2632,VALID,355,VALID,1.45547,
2014-06-18, 09:57:05,VALID,918.926,VALID,0,VALID,88.0352,VALID,401.078,VALID,21.2437,VALID,7,VALID,1.42344,
2014-06-18, 09:58:05,VALID,918.912,VALID,0,VALID,87.9132,VALID,411.285,VALID,21.1445,VALID,16,VALID,1.80352,
2014-06-18, 09:59:05,VALID,918.903,VALID,0,VALID,88.3173,VALID,338.01,VALID,21.1445,VALID,14,VALID,2.00078,
2014-06-18, 10:00:05,VALID,918.838,VALID,0,VALID,88.1191,VALID,356.275,VALID,21.1055,VALID,17,VALID,2.62227,
2014-06-18, 10:01:05,VALID,918.821,VALID,0,VALID,86.9374,VALID,395.169,VALID,21.0876,VALID,12,VALID,0.993359,
2014-06-18, 10:02:05,VALID,918.897,VALID,0,VALID,88.3401,VALID,401.615,VALID,21.1055,VALID,300,VALID,0.441406,
2014-06-18, 10:03:05,VALID,918.835,VALID,0,VALID,88.4774,VALID,428.905,VALID,21.1836,VALID,9,VALID,1.15703,
2014-06-18, 10:04:05,VALID,918.906,VALID,0,VALID,88.6603,VALID,439.327,VALID,21.3201,VALID,346,VALID,1.37031,
2014-06-18, 10:05:05,VALID,918.922,VALID,0,VALID,87.4787,VALID,411.607,VALID,21.4567,VALID,107,VALID,0.766797,
2014-06-18, 10:06:05,VALID,918.896,VALID,0,VALID,85.5271,VALID,463.716,VALID,21.6128,VALID,358,VALID,1.59687,
2014-06-18, 10:07:05,VALID,918.868,VALID,0,VALID,84.7495,VALID,513.139,VALID,21.6518,VALID,52,VALID,1.55547,
2014-06-18, 10:08:05,VALID,918.883,VALID,0,VALID,84.2921,VALID,532.586,VALID,21.6518,VALID,322,VALID,0.827344,
2014-06-18, 10:09:05,VALID,918.872,VALID,0,VALID,85.5881,VALID,619.076,VALID,21.7672,VALID,20,VALID,1.50508,
2014-06-18, 10:10:05,VALID,918.826,VALID,0,VALID,84.1701,VALID,732.211,VALID,21.964,VALID,331,VALID,0.873828,
2014-06-18, 10:11:05,VALID,918.832,VALID,0,VALID,85.3289,VALID,772.932,VALID,22.2567,VALID,46,VALID,1.67383,
2014-06-18, 10:12:05,VALID,918.836,VALID,0,VALID,80.6252,VALID,897.671,VALID,22.5494,VALID,321,VALID,1.7918,
2014-06-18, 10:13:05,VALID,918.86,VALID,0,VALID,81.3037,VALID,838.041,VALID,22.6452,VALID,18,VALID,1.29727,
2014-06-18, 10:14:05,VALID,918.85,VALID,0,VALID,82.8132,VALID,808.28,VALID,22.9185,VALID,23,VALID,0.995313,
2014-06-18, 10:15:05,VALID,918.861,VALID,0,VALID,78.3611,VALID,373.143,VALID,23.1331,VALID,304,VALID,1.70195,
2014-06-18, 10:16:05,VALID,918.849,VALID,0,VALID,77.8427,VALID,605.216,VALID,23.0551,VALID,251,VALID,1.52266,
2014-06-18, 10:17:05,VALID,918.841,VALID,0,VALID,79.7714,VALID,693.425,VALID,22.938,VALID,38,VALID,0.892969,
2014-06-18, 10:18:05,VALID,918.816,VALID,0,VALID,79.0624,VALID,599.737,VALID,23.0356,VALID,249,VALID,1.19492,
2014-06-18, 10:19:05,VALID,918.785,VALID,0,VALID,78.018,VALID,551.925,VALID,22.9753,VALID,273,VALID,1.6625,
2014-06-18, 10:20:05,VALID,918.804,VALID,0,VALID,79.6037,VALID,524.957,VALID,22.9007,VALID,268,VALID,0.966406,
2014-06-18, 10:21:05,VALID,918.78,VALID,0,VALID,79.9391,VALID,493.692,VALID,22.7623,VALID,339,VALID,0.407422,
2014-06-18, 10:22:05,VALID,918.743,VALID,0,VALID,78.6355,VALID,433.31,VALID,22.6257,VALID,280,VALID,0.905859,
2014-06-18, 10:23:05,VALID,918.683,VALID,0,VALID,80.1221,VALID,481.659,VALID,22.5281,VALID,17,VALID,2.67695,
2014-06-18, 10:24:05,VALID,918.664,VALID,0,VALID,80.9607,VALID,544.082,VALID,22.5477,VALID,25,VALID,1.59648,